User: anonymous
Location: NJAA Observatory
(40.6819°N, 74.8979°W)
Time: 22:34:59
(UTC-04:00)
Language:

Iridium 56 - Orbit

View from above orbital plane
View from above orbital plane
View from above satellite
View from above satellite

Ground track
Ground track

The orbit data is extracted from the following two-line orbital elements,

1 25170U 98010B   14209.46143878  .00000288  00000-0  95722-4 0  6994
2 25170 086.3936 071.3435 0002148 106.8948 028.3731 14.34215318860589
Epoch (UTC): 28 July 2014 11:04:28
Eccentricity: 0.0002148
inclination: 86.3936°
perigee height: 776 km
apogee height: 779 km
right ascension of ascending node: 71.3435°
argument of perigee: 106.8948°
revolutions per day: 14.34215318
mean anomaly at epoch: 28.3731°
orbit number at epoch: 86058

The dashed part of the orbit path shows where the satellite is in the earth's shadow,  

DLR